Wind_Speed
15 16 16 17 17 18 18 18 18 18 18 18 18 19 19 19 19 19 18 18 18 17 17 17 16 15 15 14 14 14 13 13 13 12 12 12 12 10 10 9 9 9 9
17 17 18 18 18 19 19 20 20 20 20 20 20 21 21 21 21 21 21 20 20 20 19 19 18 18 17 17 16 16 16 15 15 14 14 14 13 13 12 12 11 11 11
19 19 20 20 20 21 21 22 22 22 22 22 22 23 23 23 23 23 23 22 22 22 22 21 20 20 19 19 19 19 18 17 17 16 16 15 15 14 14 14 13 13 13
20 21 22 22 22 22 22 23 24 24 25 25 25 25 25 25 25 25 25 25 24 24 23 23 23 22 21 21 21 21 20 19 19 18 17 17 16 16 16 16 15 15 15
22 23 24 24 24 24 25 25 26 26 26 27 27 28 28 28 28 27 27 27 27 26 26 25 25 24 24 22 22 22 22 21 21 20 19 19 18 18 17 17 17 16 16
25 25 25 26 26 27 27 27 28 28 28 29 29 30 30 30 30 30 30 30 29 29 29 28 27 27 26 25 24 23 23 23 23 22 21 21 20 20 19 18 18 18 18
27 27 27 28 28 29 29 29 30 30 31 31 32 32 32 32 32 32 32 32 32 31 31 30 30 30 29 28 27 26 25 25 25 24 24 23 22 22 22 21 20 20 20
28 29 29 30 30 31 31 32 33 33 34 34 34 34 35 35 35 35 35 35 34 34 34 33 33 32 31 30 30 29 27 27 27 26 26 25 25 24 24 24 23 22 22
30 30 31 31 32 32 32 33 34 35 36 36 37 37 37 37 37 37 37 37 37 36 36 36 35 35 34 33 32 32 31 30 29 29 28 28 27 26 26 26 25 25 24
30 31 32 32 32 33 34 34 35 36 36 37 38 38 39 39 39 39 39 39 39 39 39 39 38 37 37 36 35 34 33 33 32 32 31 30 30 29 29 28 28 27 27
31 32 32 33 33 34 35 35 36 37 37 38 39 39 40 40 41 41 41 41 41 41 41 41 41 40 39 39 38 37 37 36 35 35 34 33 33 32 31 31 30 30 30
31 32 32 33 34 35 35 36 37 38 39 39 40 41 41 42 42 42 43 43 43 44 44 44 43 43 42 41 41 40 40 39 38 38 37 37 36 35 34 33 33 32 32
31 31 32 34 34 36 37 38 39 40 40 41 42 42 43 44 44 45 45 45 45 46 46 46 46 46 45 44 44 44 43 42 41 40 40 39 39 39 38 37 36 35 34
31 32 33 34 35 36 37 39 40 41 42 43 44 45 45 46 46 47 47 47 47 48 49 49 49 48 48 48 47 47 46 45 44 44 43 42 42 42 41 40 39 38 37
30 31 33 34 36 37 38 39 40 42 43 44 45 46 47 48 49 49 50 49 50 51 51 51 52 52 51 51 50 50 49 48 47 46 46 45 45 44 43 42 42 41 40
31 32 34 35 36 37 38 40 41 43 44 46 47 48 49 50 51 51 51 52 52 53 53 53 53 54 54 54 53 52 52 51 50 49 48 48 47 46 46 45 44 43 42
32 33 34 35 37 38 39 41 42 43 45 46 48 49 50 52 53 53 53 53 54 55 55 55 55 55 56 56 56 55 54 54 52 51 51 50 50 49 48 48 47 45 44
33 34 35 37 38 39 41 42 43 44 46 47 49 50 51 53 54 55 56 56 56 57 58 58 58 58 58 57 57 57 57 57 55 54 54 53 52 51 50 49 49 47 47
34 35 36 38 39 41 42 43 45 46 48 49 50 51 52 54 55 56 58 59 59 60 60 61 61 61 61 60 60 60 59 59 58 57 56 55 54 53 52 51 50 49 48
35 36 37 39 41 42 43 45 46 48 49 51 52 53 54 55 56 57 59 60 61 63 63 63 64 64 63 63 62 62 61 61 60 59 58 57 56 54 53 53 52 51 50
36 37 38 40 41 43 44 46 47 48 50 51 53 54 55 56 57 58 60 61 63 64 65 66 66 66 65 65 64 63 62 62 61 60 59 59 57 56 56 55 55 54 53
36 38 39 40 42 43 45 46 47 48 49 50 51 53 55 57 58 59 60 61 62 63 64 65 66 66 66 66 66 65 64 62 62 61 61 60 59 58 58 57 57 56 54
38 39 40 41 43 44 45 46 47 49 50 51 52 54 55 57 58 58 59 59 60 61 62 62 64 65 65 65 66 65 65 63 61 61 61 60 60 59 59 59 58 57 56
39 40 41 43 44 45 46 48 49 50 51 53 54 54 55 56 56 57 57 57 57 58 59 59 60 61 63 63 63 64 64 64 63 61 60 61 60 59 59 59 59 58 58
40 42 43 45 46 47 48 50 51 52 53 54 55 55 55 55 55 55 56 56 55 55 55 56 57 57 59 59 59 60 61 61 61 61 59 59 60 59 59 59 59 58 58
42 43 45 46 47 49 50 51 53 54 55 56 55 55 54 54 54 55 55 55 55 54 54 53 53 54 55 56 56 57 59 58 59 60 59 58 58 59 59 59 60 58 58
Wind_Direction
247 249 250 249 249 249 250 251 252 253 253 254 255 256 257 258 258 258 259 261 262 264 265 264 263 263 264 264 264 263 264 264 263 264 264 265 265 266 269 272 274 279 284
249 250 251 250 250 251 252 252 253 254 255 255 255 256 258 258 259 259 259 260 261 262 263 265 264 263 262 263 264 263 263 263 263 264 265 265 265 265 267 270 273 277 281
251 252 253 253 253 253 254 254 254 256 256 256 256 257 258 258 259 260 260 260 260 262 263 263 264 263 262 262 263 263 263 262 262 263 264 265 265 265 266 269 271 274 278
251 253 254 255 256 257 257 257 257 257 257 257 258 258 259 260 260 259 260 260 261 261 262 262 262 263 265 265 264 263 264 264 262 262 262 263 265 266 267 268 271 273 276
254 254 256 257 258 259 260 260 259 259 259 259 259 259 260 261 261 261 261 261 261 261 261 262 263 263 264 266 266 264 264 264 263 263 264 263 265 266 267 268 270 273 275
256 256 258 259 261 261 262 262 262 261 260 261 261 261 261 260 261 261 261 261 261 261 261 262 263 263 262 263 265 265 265 265 264 264 264 264 266 266 266 269 269 270 273
257 258 259 260 262 263 263 263 263 263 262 261 261 262 262 261 261 260 261 261 261 260 261 261 262 263 263 262 262 264 264 264 264 263 264 265 266 267 266 266 269 270 271
258 260 261 262 263 264 264 265 264 264 263 263 262 262 262 262 262 262 261 262 261 261 261 261 262 262 263 263 261 261 262 263 263 263 263 263 265 267 266 266 267 269 270
260 262 263 264 265 265 266 266 267 266 265 265 264 263 262 262 262 262 261 261 261 261 261 261 262 263 263 263 263 262 262 263 263 263 263 263 263 265 267 266 267 269 270
262 264 265 266 266 266 267 267 267 267 267 267 266 265 264 263 262 262 261 261 261 261 261 261 262 262 262 262 262 263 263 263 263 263 263 263 262 263 265 266 267 268 269
263 265 266 267 267 267 268 268 268 268 268 268 267 266 265 264 263 262 262 261 261 261 261 261 261 261 262 263 262 262 263 263 263 262 262 262 262 262 263 265 266 267 268
264 265 266 267 267 268 268 269 269 269 268 268 267 266 266 265 264 263 262 262 262 262 262 262 261 261 261 262 262 263 263 263 263 263 261 261 261 262 262 263 264 265 266
265 265 266 267 268 268 269 269 270 269 269 268 268 267 266 266 265 264 263 263 263 262 262 262 262 262 261 261 261 262 263 263 263 263 263 262 262 262 262 262 263 264 265
267 268 269 269 269 270 270 271 271 270 270 269 268 268 267 266 265 265 264 264 264 263 262 261 261 262 262 262 261 262 262 262 263 263 263 263 262 262 261 261 262 263 263
269 270 271 271 272 272 272 272 272 272 271 270 269 268 267 266 266 264 264 264 263 263 263 262 262 262 262 262 262 261 262 262 262 263 263 262 262 262 261 261 261 261 262
271 272 273 274 275 275 275 275 274 273 273 272 270 269 268 267 266 265 263 264 264 264 264 263 263 262 262 262 262 261 261 261 262 262 262 262 261 261 260 260 261 261 262
274 275 275 277 277 277 276 276 276 275 275 274 273 272 270 269 267 265 264 265 264 264 264 263 263 262 261 261 261 261 261 260 260 261 261 262 261 260 260 260 260 260 261
276 277 278 278 278 278 278 277 278 277 277 276 275 274 273 271 269 267 266 265 265 264 264 263 262 262 262 261 260 260 260 260 260 260 260 260 261 260 260 260 260 260 260
279 279 279 280 280 281 281 281 280 280 279 279 277 275 274 272 271 269 266 266 266 265 264 263 262 262 261 261 260 259 259 259 259 259 259 259 259 259 258 259 260 260 260
281 280 281 281 282 283 283 282 281 281 281 280 279 277 276 274 272 270 268 267 267 266 265 264 263 262 261 260 260 259 259 259 258 258 258 258 258 258 258 258 259 259 259
282 282 282 283 284 284 284 284 283 283 283 282 281 279 277 276 273 272 270 269 269 267 266 265 263 262 261 260 259 259 258 258 258 258 257 257 256 257 257 257 258 258 259
283 284 284 285 286 287 286 286 286 286 285 284 283 282 280 278 277 275 273 272 271 269 267 265 263 261 260 260 259 258 257 257 257 257 257 256 256 256 256 256 256 257 257
285 286 287 287 288 289 288 288 289 289 288 287 286 284 282 280 279 278 276 273 271 270 268 265 264 263 260 259 258 257 256 255 255 255 256 256 256 256 256 255 256 256 257
286 287 288 290 290 290 290 289 289 290 290 290 289 286 284 281 280 279 277 275 273 271 269 267 265 263 261 258 257 257 256 256 255 254 255 255 255 255 255 255 255 255 256
288 289 290 292 292 292 291 291 291 292 292 291 290 287 285 282 280 279 277 275 272 271 269 268 265 263 261 258 257 256 255 255 255 256 255 254 254 254 254 254 253 254 255
289 291 292 293 293 294 294 293 293 294 293 292 291 288 285 283 281 280 278 275 271 270 269 268 265 262 260 258 257 256 255 255 255 256 256 255 255 254 253 252 253 253 253
Height
5852 5852 5853 5853 5854 5855 5855 5856 5857 5857 5858 5858 5859 5859 5860 5860 5861 5861 5862 5862 5862 5863 5863 5863 5863 5863 5863 5863 5863 5863 5863 5863 5863 5863 5863 5863 5862 5862 5862 5861 5861 5860 5860
5848 5849 5850 5850 5851 5852 5852 5853 5854 5854 5855 5856 5856 5856 5857 5857 5858 5858 5859 5859 5860 5860 5860 5860 5861 5861 5861 5861 5861 5861 5861 5861 5861 5861 5861 5861 5860 5860 5860 5860 5859 5859 5858
5845 5846 5846 5847 5848 5849 5849 5850 5850 5851 5852 5852 5853 5853 5854 5854 5855 5855 5856 5856 5856 5857 5857 5857 5858 5858 5858 5858 5858 5858 5858 5858 5858 5859 5859 5858 5858 5858 5858 5858 5857 5857 5856
5842 5842 5843 5844 5844 5845 5846 5846 5847 5847 5848 5848 5849 5850 5850 5850 5851 5851 5852 5852 5853 5853 5854 5854 5854 5854 5855 5855 5855 5855 5855 5855 5855 5855 5855 5856 5856 5856 5855 5855 5855 5854 5854
5837 5838 5839 5840 5840 5841 5841 5842 5843 5843 5844 5844 5845 5845 5846 5846 5847 5847 5848 5848 5849 5849 5850 5850 5850 5851 5851 5851 5852 5852 5852 5852 5852 5852 5852 5852 5853 5853 5852 5852 5852 5852 5851
5833 5834 5834 5835 5836 5836 5837 5837 5838 5838 5839 5839 5840 5840 5841 5841 5842 5842 5843 5844 5844 5845 5845 5846 5846 5847 5847 5847 5848 5848 5848 5848 5849 5849 5849 5849 5849 5849 5849 5849 5849 5848 5848
5828 5829 5829 5830 5830 5831 5832 5832 5833 5833 5833 5834 5834 5835 5835 5836 5836 5837 5838 5838 5839 5839 5840 5841 5842 5842 5842 5843 5843 5844 5844 5844 5844 5845 5845 5846 5846 5845 5845 5845 5845 5845 5844
5823 5823 5824 5824 5825 5825 5826 5826 5826 5827 5827 5828 5828 5829 5830 5830 5831 5831 5832 5832 5833 5834 5834 5835 5836 5837 5837 5838 5838 5839 5839 5840 5840 5840 5841 5841 5842 5841 5841 5841 5841 5841 5840
5817 5817 5818 5818 5819 5819 5819 5819 5820 5820 5820 5821 5821 5822 5822 5823 5824 5825 5825 5826 5827 5827 5828 5829 5830 5830 5831 5832 5833 5833 5834 5834 5835 5835 5836 5836 5837 5837 5837 5837 5837 5837 5836
5811 5811 5812 5812 5812 5813 5813 5813 5813 5813 5813 5813 5813 5814 5815 5815 5816 5817 5818 5819 5819 5820 5821 5822 5823 5823 5824 5825 5826 5827 5828 5828 5829 5829 5830 5831 5831 5832 5832 5832 5832 5832 5831
5805 5805 5805 5805 5806 5806 5806 5806 5805 5805 5805 5805 5805 5806 5806 5807 5808 5809 5810 5810 5811 5812 5813 5814 5815 5816 5817 5818 5819 5820 5821 5822 5823 5823 5824 5824 5825 5825 5826 5826 5826 5826 5826
5798 5798 5799 5799 5798 5798 5798 5798 5798 5797 5797 5797 5797 5797 5798 5798 5799 5800 5801 5802 5803 5803 5804 5805 5806 5808 5809 5810 5811 5812 5813 5814 5815 5816 5816 5817 5818 5819 5819 5819 5820 5820 5820
5791 5792 5792 5791 5791 5791 5791 5790 5790 5789 5789 5788 5789 5789 5789 5789 5790 5791 5792 5792 5793 5794 5795 5796 5797 5798 5800 5801 5802 5803 5804 5805 5806 5807 5809 5809 5810 5811 5812 5812 5812 5813 5813
5785 5785 5784 5784 5783 5783 5782 5782 5781 5780 5780 5779 5779 5779 5779 5780 5780 5781 5782 5783 5783 5784 5784 5786 5787 5788 5790 5791 5792 5793 5794 5796 5797 5798 5800 5801 5801 5802 5803 5804 5804 5805 5805
5778 5777 5777 5776 5775 5774 5774 5773 5772 5771 5770 5770 5769 5769 5769 5769 5770 5770 5771 5772 5773 5773 5774 5775 5776 5777 5779 5780 5782 5783 5784 5786 5787 5789 5790 5791 5792 5793 5794 5795 5796 5796 5797
5770 5770 5769 5768 5767 5766 5765 5763 5762 5761 5760 5759 5758 5758 5758 5758 5758 5759 5759 5760 5761 5761 5762 5763 5764 5765 5767 5769 5770 5771 5773 5775 5776 5778 5779 5781 5782 5783 5784 5785 5786 5787 5788
5762 5761 5761 5759 5758 5757 5755 5754 5752 5751 5749 5748 5747 5746 5745 5745 5745 5745 5746 5747 5747 5748 5749 5750 5751 5752 5754 5756 5757 5759 5761 5762 5764 5766 5768 5769 5771 5772 5774 5775 5776 5777 5778
5754 5753 5752 5751 5749 5747 5746 5744 5742 5740 5738 5736 5735 5733 5732 5731 5731 5731 5732 5733 5733 5734 5734 5735 5737 5738 5740 5742 5744 5746 5748 5750 5751 5754 5755 5757 5759 5761 5763 5764 5766 5767 5768
5746 5745 5743 5741 5739 5737 5735 5733 5731 5729 5726 5724 5722 5720 5719 5717 5716 5716 5717 5717 5717 5718 5719 5720 5721 5722 5724 5727 5729 5731 5733 5736 5738 5740 5743 5744 5746 5748 5750 5753 5755 5756 5758
5737 5735 5734 5732 5729 5727 5724 5722 5719 5716 5714 5711 5709 5707 5705 5703 5701 5701 5701 5700 5700 5701 5702 5702 5704 5705 5707 5710 5712 5715 5718 5720 5723 5726 5728 5731 5733 5736 5738 5740 5743 5744 5746
5728 5726 5724 5722 5719 5716 5713 5710 5707 5704 5701 5698 5695 5692 5689 5687 5686 5685 5684 5683 5683 5683 5683 5684 5685 5687 5689 5691 5694 5698 5702 5704 5707 5710 5713 5716 5719 5722 5724 5727 5729 5732 5734
5719 5716 5714 5711 5708 5705 5701 5698 5695 5691 5688 5684 5681 5677 5674 5671 5669 5667 5666 5665 5664 5663 5664 5664 5665 5668 5670 5672 5675 5679 5684 5689 5692 5695 5697 5701 5704 5707 5710 5713 5716 5718 5721
5709 5706 5703 5700 5697 5693 5690 5686 5682 5678 5675 5671 5667 5663 5658 5655 5651 5649 5647 5646 5645 5644 5644 5644 5645 5647 5651 5654 5656 5660 5665 5671 5676 5679 5682 5685 5688 5691 5695 5698 5701 5704 5707
5699 5696 5693 5689 5686 5682 5678 5674 5669 5665 5661 5657 5652 5647 5643 5638 5635 5632 5629 5628 5626 5626 5626 5626 5627 5628 5632 5636 5639 5642 5647 5652 5656 5663 5667 5670 5672 5676 5679 5683 5686 5690 5692
5688 5685 5681 5678 5674 5670 5665 5661 5656 5651 5647 5642 5637 5632 5627 5623 5619 5615 5612 5610 5609 5608 5608 5609 5609 5611 5614 5618 5622 5626 5630 5634 5638 5643 5650 5654 5657 5660 5663 5667 5670 5674 5677
5677 5674 5670 5666 5662 5657 5652 5647 5642 5637 5632 5627 5621 5616 5611 5607 5603 5599 5595 5593 5592 5592 5592 5593 5593 5596 5598 5602 5606 5610 5614 5618 5622 5626 5631 5637 5641 5645 5648 5650 5654 5658 5662